Retour au catalogue

LEMUR-2-TEODOR

ActifScienceSSO
NORAD 66768·PAYLOAD·🇺🇸 United States

Lancé Nov 28, 2025 depuis Vandenberg Space Force Base

Loading…

Prochains Passages (prochaines 24 heures)

TLE

FraisSource: Space-Track

Époque: Sep 14, 2026, 14:59 UTC

1 66768U 25276DG  26257.62498799  .00004454  00000-0  19887-3 0  9994
2 66768  97.4077 330.0293 0001648 121.9613 238.1784 15.21874263 44045

Suivez LEMUR-2-TEODOR en temps réel avec AllMySat

Download on the App Store